Home   Weather   Prescott   Past weeks
Flag for USA

Past Weather in Prescott, Arizona, USA — Yesterday and Last 2 Weeks

Now
48 °F

Clear.


Feels Like: 44 °F
Forecast: 70 / 44 °F
Wind: 8 mph from South

Location: Love Field

Current Time: May 25, 2019 at 1:08:17 am

Latest Report: May 24, 2019 at 11:53 pm


Visibility: 10 mi

Pressure: 29.83 "Hg (24.47 "Hg at 1635m altitude)

Humidity: 43%

Dew Point: 26 °F

Location of PrescottLocation

Past Weather in Prescott — Graph

°F

Prescott Temperature Yesterday

Maximum temperature yesterday: 68 °F (at 2:53 pm)
Minimum temperature yesterday: 34 °F (at 4:53 am)
Average temperature yesterday: 52 °F

High & Low Weather Summary for the Past Weeks

 TemperatureHumidityPressure
High79 °F (May 14, 3:53 pm)93% (May 9, 11:53 pm)30.07 "Hg (May 9, 11:53 pm)
Low34 °F (May 24, 4:53 am)14% (May 18, 5:53 pm)29.50 "Hg (May 22, 4:53 am)
Average55 °F51%29.79 "Hg
* Reported May 9 11:53 pm — May 24 11:53 pm, Prescott. Weather by CustomWeather, © 2019

Note: Actual official high and low records may vary slightly from our data, if they occured in-between our weather recording intervals... More about our weather records

Advertising

Prescott Weather History for the Previous 24 Hours

Scroll right to see more
 ConditionsComfort  
Time TempWeatherWind HumidityBarometerVisibility
11:53 pm
Fri, May 24
48 °FClear.8 mph43%29.83 "Hg10 mi
10:53 pm50 °FClear.9 mph39%29.85 "Hg10 mi
9:53 pm51 °FClear.8 mph41%29.85 "Hg10 mi
8:53 pm55 °FClear.9 mph34%29.85 "Hg10 mi
7:53 pm58 °FClear.7 mph31%29.85 "Hg10 mi
6:53 pm64 °FPassing clouds.12 mph21%29.83 "Hg10 mi
5:53 pm66 °FSunny.9 mph17%29.84 "Hg10 mi
4:53 pm67 °FSunny.10 mph16%29.84 "Hg10 mi
3:53 pm68 °FScattered clouds.10 mph14%29.85 "Hg10 mi
2:53 pm68 °FPassing clouds.12 mph15%29.86 "Hg10 mi
1:53 pm66 °FPassing clouds.3 mph20%29.88 "Hg10 mi
12:53 pm64 °FPassing clouds.6 mph26%29.90 "Hg10 mi
11:53 am63 °FPassing clouds.N/A29%29.92 "Hg10 mi
10:53 am59 °FPassing clouds.5 mph35%29.95 "Hg10 mi
9:53 am56 °FPassing clouds.5 mph44%29.96 "Hg10 mi
8:53 am51 °FSunny.3 mph56%29.97 "Hg10 mi
7:53 am47 °FSunny.3 mph71%29.97 "Hg10 mi
6:53 am42 °FSunny.No wind79%29.97 "Hg10 mi
5:53 am36 °FSunny.7 mph85%29.98 "Hg10 mi
4:53 am34 °FClear.7 mph88%29.96 "Hg10 mi
3:53 am35 °FClear.7 mph88%29.96 "Hg10 mi
2:53 am36 °FClear.6 mph85%29.97 "Hg10 mi
1:53 am38 °FClear.7 mph83%29.97 "Hg10 mi
Weather by CustomWeather, © 2019

See weather overview